TimeEDT,TemperatureF,Dew PointF,Humidity,Sea Level PressureIn,VisibilityMPH,Wind Direction,Wind SpeedMPH,Gust SpeedMPH,PrecipitationIn,Events,Conditions,WindDirDegrees,DateUTC
12:53 AM,82.9,73.9,74,30.08,10.0,ENE,6.9,-,N/A,,Partly Cloudy,70,2013-07-08 04:53:00
1:53 AM,82.9,75.0,77,30.07,10.0,NE,3.5,-,N/A,,Scattered Clouds,40,2013-07-08 05:53:00
2:53 AM,82.0,75.0,79,30.06,10.0,ENE,3.5,-,N/A,,Clear,60,2013-07-08 06:53:00
3:53 AM,81.0,73.9,79,30.05,10.0,NE,4.6,-,N/A,,Clear,50,2013-07-08 07:53:00
4:53 AM,81.0,73.9,79,30.05,10.0,NE,3.5,-,N/A,,Clear,50,2013-07-08 08:53:00
5:53 AM,79.0,73.9,84,30.05,10.0,ENE,4.6,-,0.04,,Partly Cloudy,60,2013-07-08 09:53:00
6:53 AM,80.1,73.9,81,30.05,10.0,East,8.1,-,N/A,,Clear,90,2013-07-08 10:53:00
7:53 AM,82.0,73.9,76,30.07,10.0,East,10.4,-,N/A,,Clear,100,2013-07-08 11:53:00
8:53 AM,84.0,73.9,72,30.08,10.0,East,13.8,-,N/A,,Clear,90,2013-07-08 12:53:00
9:53 AM,84.9,73.9,69,30.10,10.0,East,16.1,-,N/A,,Partly Cloudy,100,2013-07-08 13:53:00
10:43 AM,82.4,75.2,79,30.11,8.0,East,15.0,23.0,0.00,Rain,Light Rain,100,2013-07-08 14:43:00
10:53 AM,84.9,75.0,72,30.11,10.0,East,17.3,-,0.00,,Mostly Cloudy,100,2013-07-08 14:53:00
11:53 AM,86.0,75.0,70,30.12,10.0,East,16.1,25.3,N/A,,Partly Cloudy,100,2013-07-08 15:53:00
12:53 PM,87.1,73.0,63,30.12,10.0,ESE,17.3,24.2,N/A,,Partly Cloudy,110,2013-07-08 16:53:00
1:53 PM,87.1,72.0,61,30.12,10.0,East,19.6,25.3,N/A,,Clear,100,2013-07-08 17:53:00
2:53 PM,87.1,73.9,65,30.11,10.0,East,17.3,23.0,N/A,,Clear,100,2013-07-08 18:53:00
3:53 PM,87.1,73.0,63,30.10,10.0,East,16.1,23.0,N/A,,Partly Cloudy,100,2013-07-08 19:53:00
4:53 PM,87.1,72.0,61,30.08,10.0,East,17.3,-,N/A,,Partly Cloudy,100,2013-07-08 20:53:00
5:53 PM,87.1,72.0,61,30.06,10.0,East,15.0,21.9,N/A,,Clear,90,2013-07-08 21:53:00
6:53 PM,84.9,71.1,63,30.07,10.0,East,12.7,-,N/A,,Clear,90,2013-07-08 22:53:00
7:53 PM,84.0,71.1,65,30.09,10.0,East,9.2,19.6,N/A,,Clear,80,2013-07-08 23:53:00
8:53 PM,82.9,71.1,67,30.09,10.0,East,9.2,-,N/A,,Clear,80,2013-07-09 00:53:00
9:53 PM,82.9,68.0,60,30.10,10.0,East,9.2,-,N/A,,Clear,80,2013-07-09 01:53:00
10:53 PM,82.9,69.1,63,30.13,10.0,ENE,8.1,-,N/A,,Clear,70,2013-07-09 02:53:00
11:53 PM,81.0,71.1,72,30.13,10.0,East,10.4,-,N/A,,Clear,90,2013-07-09 03:53:00